• în România
  • Lista ţărilor
  • Pe 7 zile
  • Temperatura apei
  • Hartă satelitară
  • Meteo pe hartă
  • Widget-uri
  • user-avatar
    Intrare

    Meteo pe oră la Lvovskoe

    Astăzi, 20 Iulie, Vineri

    Timp Temperatura Precipitaţii Vânt Presiune Umiditate
    00:00 +19°C° 0 mm 3 m/s 742 mmHg 91%
    01:00 +19°C° 0 mm 3 m/s 742 mmHg 92%
    02:00 +19°C° 0 mm 3 m/s 742 mmHg 93%
    03:00 +19°C° 0,1 mm 3 m/s 742 mmHg 93%
    04:00 +19°C° 0,1 mm 3 m/s 742 mmHg 94%
    05:00 +19°C° 0,1 mm 3 m/s 741 mmHg 94%
    06:00 +19°C° 0,1 mm 3 m/s 741 mmHg 93%
    07:00 +19°C° 0,1 mm 3 m/s 741 mmHg 92%
    08:00 +20°C° 0,1 mm 3 m/s 742 mmHg 92%
    09:00 +20°C° 0,1 mm 3 m/s 742 mmHg 91%
    10:00 +20°C° 0,1 mm 3 m/s 742 mmHg 90%
    11:00 +20°C° 0,1 mm 3 m/s 742 mmHg 90%
    12:00 +21°C° 0,1 mm 4 m/s 742 mmHg 86%
    13:00 +22°C° 0,1 mm 4 m/s 742 mmHg 81%
    14:00 +23°C° 0,1 mm 4 m/s 742 mmHg 77%
    15:00 +23°C° 0,4 mm 4 m/s 741 mmHg 78%
    16:00 +23°C° 0,4 mm 4 m/s 741 mmHg 79%
    17:00 +25°C° 0,4 mm 3 m/s 741 mmHg 81%
    18:00 +24°C° 0,8 mm 3 m/s 741 mmHg 85%
    19:00 +22°C° 0,8 mm 3 m/s 741 mmHg 89%
    20:00 +21°C° 0,8 mm 3 m/s 741 mmHg 93%
    21:00 +20°C° 0,2 mm 3 m/s 741 mmHg 93%
    22:00 +20°C° 0,2 mm 3 m/s 741 mmHg 94%
    23:00 +20°C° 0,2 mm 3 m/s 741 mmHg 95%

    Mâine, 21 Iulie, Sâmbătă

    Timp Temperatura Precipitaţii Vânt Presiune Umiditate
    00:00 +19°C° 0,2 mm 3 m/s 741 mmHg 96%
    01:00 +19°C° 0,2 mm 3 m/s 741 mmHg 96%
    02:00 +19°C° 0,2 mm 3 m/s 741 mmHg 97%
    03:00 +19°C° 0,1 mm 4 m/s 741 mmHg 97%
    04:00 +19°C° 0,1 mm 4 m/s 741 mmHg 96%
    05:00 +19°C° 0,1 mm 4 m/s 741 mmHg 96%
    06:00 +20°C° 0,1 mm 4 m/s 742 mmHg 95%
    07:00 +20°C° 0,1 mm 4 m/s 742 mmHg 94%
    08:00 +20°C° 0,1 mm 4 m/s 742 mmHg 93%
    09:00 +21°C° 0 mm 4 m/s 742 mmHg 90%
    10:00 +22°C° 0 mm 4 m/s 742 mmHg 86%
    11:00 +22°C° 0 mm 4 m/s 742 mmHg 82%
    12:00 +23°C° 0,2 mm 4 m/s 742 mmHg 79%
    13:00 +25°C° 0,2 mm 4 m/s 742 mmHg 75%
    14:00 +26°C° 0,2 mm 4 m/s 742 mmHg 71%
    15:00 +26°C° 0,3 mm 4 m/s 742 mmHg 72%
    16:00 +26°C° 0,3 mm 4 m/s 742 mmHg 72%
    17:00 +26°C° 0,3 mm 4 m/s 742 mmHg 73%
    18:00 +25°C° 0,1 mm 4 m/s 742 mmHg 78%
    19:00 +24°C° 0,1 mm 3 m/s 742 mmHg 83%
    20:00 +21°C° 0,1 mm 3 m/s 742 mmHg 87%
    21:00 +20°C° 0 mm 3 m/s 742 mmHg 90%
    22:00 +20°C° 0 mm 3 m/s 742 mmHg 93%
    23:00 +19°C° 0 mm 3 m/s 743 mmHg 95%

    Poimâine, 22 Iulie, Duminică

    Timp Temperatura Precipitaţii Vânt Presiune Umiditate
    00:00 +18°C° 0 mm 3 m/s 743 mmHg 96%
    01:00 +18°C° 0 mm 3 m/s 743 mmHg 97%
    02:00 +17°C° 0 mm 2 m/s 743 mmHg 98%
    03:00 +17°C° 0 mm 3 m/s 743 mmHg 96%
    04:00 +18°C° 0 mm 3 m/s 743 mmHg 94%
    05:00 +18°C° 0 mm 3 m/s 743 mmHg 93%
    06:00 +18°C° 0 mm 3 m/s 743 mmHg 91%
    07:00 +19°C° 0 mm 3 m/s 743 mmHg 89%
    08:00 +19°C° 0 mm 3 m/s 743 mmHg 88%
    09:00 +20°C° 0 mm 3 m/s 743 mmHg 87%
    10:00 +20°C° 0 mm 3 m/s 743 mmHg 85%
    11:00 +21°C° 0 mm 3 m/s 743 mmHg 84%
    12:00 +21°C° 0,1 mm 3 m/s 743 mmHg 85%
    13:00 +21°C° 0,1 mm 3 m/s 743 mmHg 86%
    14:00 +21°C° 0,1 mm 3 m/s 743 mmHg 87%
    15:00 +21°C° 0,1 mm 3 m/s 743 mmHg 86%
    16:00 +21°C° 0,1 mm 3 m/s 743 mmHg 86%
    17:00 +21°C° 0,1 mm 3 m/s 743 mmHg 86%
    18:00 +21°C° 0,1 mm 3 m/s 743 mmHg 88%
    19:00 +20°C° 0,1 mm 3 m/s 743 mmHg 90%
    20:00 +20°C° 0,1 mm 3 m/s 743 mmHg 92%
    21:00 +19°C° 0,1 mm 3 m/s 743 mmHg 93%
    22:00 +19°C° 0,1 mm 3 m/s 743 mmHg 94%
    23:00 +19°C° 0,1 mm 3 m/s 743 mmHg 95%

    23 Iulie, Luni

    Timp Temperatura Precipitaţii Vânt Presiune Umiditate
    00:00 +19°C° 0 mm 3 m/s 743 mmHg 95%
    01:00 +19°C° 0 mm 3 m/s 743 mmHg 96%
    02:00 +18°C° 0 mm 3 m/s 742 mmHg 97%
    03:00 +18°C° 0 mm 3 m/s 743 mmHg 96%
    04:00 +18°C° 0 mm 3 m/s 743 mmHg 95%
    05:00 +18°C° 0 mm 3 m/s 743 mmHg 95%
    06:00 +19°C° 0,1 mm 3 m/s 743 mmHg 94%
    07:00 +19°C° 0,1 mm 3 m/s 743 mmHg 94%
    08:00 +19°C° 0,1 mm 4 m/s 743 mmHg 93%
    09:00 +19°C° 0,1 mm 4 m/s 743 mmHg 91%
    10:00 +19°C° 0,1 mm 4 m/s 743 mmHg 90%
    11:00 +20°C° 0,1 mm 4 m/s 743 mmHg 88%
    12:00 +20°C° 0,1 mm 4 m/s 743 mmHg 87%
    13:00 +20°C° 0,1 mm 3 m/s 743 mmHg 86%
    14:00 +21°C° 0,1 mm 3 m/s 743 mmHg 85%
    15:00 +20°C° 0 mm 3 m/s 743 mmHg 87%
    16:00 +20°C° 0 mm 3 m/s 743 mmHg 88%
    17:00 +20°C° 0 mm 3 m/s 743 mmHg 89%
    18:00 +20°C° 0 mm 3 m/s 743 mmHg 91%
    19:00 +20°C° 0 mm 2 m/s 743 mmHg 92%
    20:00 +19°C° 0 mm 2 m/s 743 mmHg 94%
    21:00 +19°C° 0,1 mm 2 m/s 743 mmHg 95%
    22:00 +19°C° 0,1 mm 2 m/s 743 mmHg 95%
    23:00 +19°C° 0,1 mm 3 m/s 743 mmHg 96%

    24 Iulie, Marţi

    Timp Temperatura Precipitaţii Vânt Presiune Umiditate
    00:00 +19°C° 0,1 mm 3 m/s 743 mmHg 96%
    01:00 +19°C° 0,1 mm 3 m/s 743 mmHg 97%
    02:00 +19°C° 0,1 mm 3 m/s 743 mmHg 97%
    03:00 +19°C° 0 mm 3 m/s 743 mmHg 97%
    04:00 +19°C° 0 mm 3 m/s 743 mmHg 97%
    05:00 +19°C° 0 mm 3 m/s 743 mmHg 96%
    06:00 +19°C° 0 mm 3 m/s 743 mmHg 95%
    07:00 +19°C° 0 mm 3 m/s 744 mmHg 94%
    08:00 +20°C° 0 mm 3 m/s 744 mmHg 93%
    09:00 +20°C° 0 mm 3 m/s 744 mmHg 91%
    10:00 +20°C° 0 mm 3 m/s 744 mmHg 90%
    11:00 +21°C° 0 mm 3 m/s 744 mmHg 89%
    12:00 +21°C° 0 mm 3 m/s 744 mmHg 88%
    13:00 +22°C° 0 mm 3 m/s 745 mmHg 86%
    14:00 +22°C° 0 mm 3 m/s 745 mmHg 85%
    15:00 +22°C° 0 mm 3 m/s 745 mmHg 83%
    16:00 +24°C° 0 mm 3 m/s 745 mmHg 82%
    17:00 +24°C° 0 mm 3 m/s 745 mmHg 80%
    18:00 +24°C° 0 mm 3 m/s 745 mmHg 84%
    19:00 +23°C° 0 mm 2 m/s 745 mmHg 88%
    20:00 +21°C° 0 mm 2 m/s 745 mmHg 92%
    21:00 +21°C° 0 mm 2 m/s 745 mmHg 93%
    22:00 +20°C° 0 mm 2 m/s 745 mmHg 94%
    23:00 +20°C° 0 mm 2 m/s 746 mmHg 96%

    25 Iulie, Miercuri

    Timp Temperatura Precipitaţii Vânt Presiune Umiditate
    00:00 +19°C° 0 mm 2 m/s 746 mmHg 96%
    01:00 +19°C° 0 mm 2 m/s 746 mmHg 97%
    02:00 +19°C° 0 mm 2 m/s 746 mmHg 98%
    03:00 +19°C° 0 mm 2 m/s 746 mmHg 97%
    04:00 +19°C° 0 mm 2 m/s 746 mmHg 97%
    05:00 +19°C° 0 mm 2 m/s 747 mmHg 97%
    06:00 +21°C° 0 mm 2 m/s 747 mmHg 91%
    07:00 +23°C° 0 mm 2 m/s 747 mmHg 85%
    08:00 +25°C° 0 mm 2 m/s 747 mmHg 79%
    09:00 +26°C° 0,1 mm 2 m/s 747 mmHg 74%
    10:00 +28°C° 0,1 mm 3 m/s 747 mmHg 69%
    11:00 +29°C° 0,1 mm 3 m/s 747 mmHg 64%
    12:00 +28°C° 1 mm 3 m/s 747 mmHg 68%
    13:00 +28°C° 1 mm 3 m/s 747 mmHg 72%
    14:00 +28°C° 1 mm 3 m/s 747 mmHg 76%
    15:00 +27°C° 0,6 mm 3 m/s 747 mmHg 76%
    16:00 +27°C° 0,6 mm 3 m/s 747 mmHg 77%
    17:00 +27°C° 0,6 mm 3 m/s 747 mmHg 77%
    18:00 +25°C° 0,2 mm 2 m/s 747 mmHg 82%
    19:00 +24°C° 0,2 mm 2 m/s 748 mmHg 86%
    20:00 +21°C° 0,2 mm 2 m/s 748 mmHg 91%
    21:00 +21°C° 0 mm 2 m/s 748 mmHg 91%
    22:00 +20°C° 0 mm 2 m/s 748 mmHg 92%
    23:00 +19°C° 0 mm 2 m/s 748 mmHg 93%
    Arată mai mult